Location: Hawks Ness
(60.2333°N, 1.1667°W)
Time: 12:20:08
(UTC+00:00)

Cosmos 1707 - Pass Details

Date: 22 October 2019
Orbit: 515 x 532 km, 82.5° (Epoch: 14 November)

Event Time Altitude Azimuth Distance (km) Brightness Sun altitude
Exits shadow 04:45:18 16° 200° (SSW) 1,433 4.7 -17.4°
Maximum altitude 04:48:21 77° 285° (WNW) 555 2.6 -17.0°
Drops below altitude 10° 04:52:18 10° 12° (NNE) 1,795 5.7 -16.5°
Sets 04:54:28 0° 14° (NNE) 2,688 6.6 -16.3°
